Location: Antin
(43.3330°N, 0.2804°E)
Time: 23:05:18
(UTC+00:00)

Cosmos 1626 Rocket - Pass Details

Date: 16 October 2021
Orbit: 603 x 631 km, 82.5° (Epoch: 04 December)

Event Time Altitude Azimuth Distance (km) Brightness Sun altitude
Rises 19:22:26 0° 351° (N) 2,874 7.2 -24.1°
Reaches altitude 10° 19:24:40 10° 351° (N) 1,963 6.3 -24.5°
Enters shadow 19:28:14 60° 348° (NNW) 698 3.8 -25.1°
